Stations météo

réclame
Mon MeteoGroup
Dinard, France (7125): Température de l'air & dewpoint: 15.08.2019 07:00:00 - 21.08.2019 07:00:00 (CEST)Dinard, France (7125): Température de l'air 5cm: 15.08.2019 07:00:00 - 21.08.2019 07:00:00 (CEST)Dinard, France (7125): Température de l'air -20cm: 15.08.2019 07:00:00 - 21.08.2019 07:00:00 (CEST)Dinard, France (7125): Vitesse du vent & gusts: 15.08.2019 07:00:00 - 21.08.2019 07:00:00 (CEST)Dinard, France (7125): Direction du vent: 15.08.2019 07:00:00 - 21.08.2019 07:00:00 (CEST)Dinard, France (7125): reduced air pressure: 15.08.2019 07:00:00 - 21.08.2019 07:00:00 (CEST)Dinard, France (7125): visibility: 15.08.2019 07:00:00 - 21.08.2019 07:00:00 (CEST)Dinard, France (7125): Ensoleillement: 15.08.2019 07:00:00 - 21.08.2019 07:00:00 (CEST)Dinard, France (7125): Quantités de précipitations: 15.08.2019 07:00:00 - 21.08.2019 07:00:00 (CEST)
Date & Time tt [°C] td [°C] tt 5cm [°C] tt -20cm [°C] ff [km/h] ff [knt] fx [km/h] fx [knt] dd ppp [hPa] vv [km] sd [min] rr [mm]
21.08.2019 07:00:00 11,7 10,1 6,9 17,7 8 4 13 7 ESE 1028,0 27 0 0,0
21.08.2019 06:00:00 10,3 9,5 5,4 17,9 5 3 7 4 E 1028,1 2,1 0 0,2
21.08.2019 05:00:00 11,5 9,7 7,4 18,2 6 3 14 8 ESE 1028,0 25 0 0,0
21.08.2019 04:00:00 10,3 9,7 5,1 18,5 6 3 12 6 SE 1028,3 17 0 0,0
21.08.2019 03:00:00 10,6 10,0 6,3 18,8 3 2 4 2 S 1028,3 14 0 0,0
21.08.2019 02:00:00 10,9 9,8 6,0 19,1 2 1 4 2 N 1028,6 16 0 0,0
21.08.2019 01:00:00 11,6 10,2 6,6 19,5 3 2 7 4 NNW 1028,7 32 0 0,0
21.08.2019 00:00:00 12,5 10,4 6,7 19,8 6 3 9 5 N 1028,7 34 0 0,0
20.08.2019 23:00:00 13,3 10,3 8,2 20,0 3 2 10 5 N 1028,6 37 0 0,0
20.08.2019 22:00:00 14,0 10,6 11,8 20,2 6 4 11 6 N 1028,4 37 0 0,0
20.08.2019 21:00:00 15,2 10,8 14,3 20,3 9 5 20 11 N 1027,9 43 50 0,0
20.08.2019 20:00:00 17,0 10,8 19,6 20,2 14 8 25 14 N 1027,8 38 60 0,0
20.08.2019 19:00:00 17,8 10,4 22,0 20,0 17 9 28 15 N 1027,4 48 60 0,0
20.08.2019 18:00:00 18,0 10,4 23,4 19,7 21 11 32 18 N 1027,1 43 60 0,0
20.08.2019 17:00:00 18,7 11,3 24,8 19,1 16 8 34 18 N 1027,0 38 60 0,0
20.08.2019 16:00:00 19,0 11,8 23,9 18,5 16 9 29 16 N 1026,9 30 57 0,0
20.08.2019 15:00:00 19,0 11,1 22,6 17,9 18 10 37 20 NNW 1026,6 50 56 0,0
20.08.2019 14:00:00 19,2 12,0 22,2 17,3 18 10 32 17 NNW 1026,4 55 54 0,0
20.08.2019 13:00:00 18,8 10,9 20,6 17,0 18 10 31 17 NW 1026,3 46 45 0,0
20.08.2019 12:00:00 18,4 12,6 18,7 16,7 14 8 24 13 NW 1026,0 20 36 0,0
20.08.2019 11:00:00 17,3 12,2 17,2 16,7 10 5 26 14 NW 1025,8 20 37 0,0
20.08.2019 10:00:00 15,7 13,2 14,4 16,8 7 4 14 8 WSW 1025,4 29 60 0,0
20.08.2019 09:00:00 13,2 11,8 10,3 16,9 8 4 14 8 WSW 1025,1 19 57 0,0
20.08.2019 08:00:00 10,8 10,2 7,6 17,1 10 5 15 8 SW 1024,6 19 7 0,0
20.08.2019 07:00:00 10,0 9,2 7,5 17,3 7 4 15 8 SW 1024,0 20 0 0,0
20.08.2019 06:00:00 10,5 9,6 8,8 17,6 12 6 15 8 WSW 1023,3 20 0 0,0
20.08.2019 05:00:00 10,4 9,6 7,8 17,8 11 6 14 8 SW 1023,1 20 0 0,2
20.08.2019 04:00:00 10,9 10,0 8,4 18,1 9 5 11 6 WSW 1022,8 18 0 0,0
20.08.2019 03:00:00 11,6 10,5 8,6 18,3 9 5 12 7 WSW 1023,1 20 0 0,0
20.08.2019 02:00:00 12,4 10,6 9,2 18,6 9 5 12 7 WSW 1023,2 33 0 0,0
20.08.2019 01:00:00 12,7 10,4 9,6 18,7 8 5 10 6 WSW 1023,0 40 0 0,0
20.08.2019 00:00:00 14,3 11,1 11,4 18,9 7 4 19 10 WSW 1022,9 44 0 0,0
19.08.2019 23:00:00 16,0 11,4 14,8 19,1 12 6 27 15 WNW 1022,6 45 0 0,0
19.08.2019 22:00:00 15,8 11,8 14,3 19,2 13 7 21 11 NW 1022,2 45 0 0,0
19.08.2019 21:00:00 16,2 12,0 15,5 19,3 12 7 24 13 NNW 1021,5 42 21 0,0
19.08.2019 20:00:00 17,8 11,8 18,3 19,2 16 8 29 16 NNW 1021,0 42 16 0,0
19.08.2019 19:00:00 17,8 12,0 18,1 19,1 19 10 31 17 NNW 1020,9 44 1 0,0
19.08.2019 18:00:00 19,2 12,2 21,8 18,9 20 11 34 19 NNW 1020,6 19 31 0,0
19.08.2019 17:00:00 19,3 11,1 20,9 18,6 21 11 35 19 WNW 1020,3 50 17 0,0
19.08.2019 16:00:00 20,5 10,9 21,8 18,3 17 9 32 17 NW 1019,9 20 39 0,0
19.08.2019 15:00:00 19,1 12,1 19,5 17,9 23 13 35 19 NW 1020,2 29 9 0,0
19.08.2019 14:00:00 19,5 10,5 20,7 17,5 16 9 32 18 WNW 1019,8 25 31 0,0
19.08.2019 13:00:00 20,6 10,4 19,3 17,3 16 9 35 19 WSW 1019,5 60 31 0,0
19.08.2019 12:00:00 18,4 11,0 18,0 17,1 16 9 32 18 W 1019,4 50 38 0,0
19.08.2019 11:00:00 17,8 11,8 19,1 17,0 20 11 31 17 W 1019,0 20 48 0,0
19.08.2019 10:00:00 16,3 12,6 15,2 17,1 16 9 27 15 WSW 1018,5 19 60 0,0
19.08.2019 09:00:00 14,5 12,5 12,8 17,3 14 7 21 12 SW 1018,2 20 60 0,0
19.08.2019 08:00:00 12,4 11,5 9,9 17,4 10 6 19 10 SW 1017,8 19 29 0,0
19.08.2019 07:00:00 11,2 10,6 9,5 17,7 8 5 16 8 SSW 1017,5 17 0 0,0
19.08.2019 06:00:00 11,7 10,6 10,6 17,9 10 6 17 9 SSW 1016,9 18 0 0,0
19.08.2019 05:00:00 12,2 11,1 11,0 18,1 12 6 21 11 SW 1016,6 19 0 0,0
19.08.2019 04:00:00 12,3 11,0 11,4 18,3 11 6 20 11 SSW 1016,6 20 0 0,0
19.08.2019 03:00:00 12,6 11,2 11,8 18,6 12 7 22 12 SW 1016,4 20 0 0,0
19.08.2019 02:00:00 13,1 11,3 12,1 18,8 14 8 23 12 SW 1016,4 28 0 0,0
19.08.2019 01:00:00 13,2 10,9 11,9 19,0 12 6 18 10 SW 1016,0 33 0 0,0
19.08.2019 00:00:00 14,4 11,2 13,1 19,3 12 7 22 12 WSW 1015,6 37 0 0,0
18.08.2019 23:00:00 15,2 11,8 14,1 19,5 10 5 20 11 WSW 1015,1 35 0 0,0
18.08.2019 22:00:00 16,5 11,8 15,7 19,6 14 8 31 17 W 1014,4 37 0 0,0
18.08.2019 21:00:00 17,4 13,1 17,1 19,7 19 10 33 18 NW 1013,4 37 31 0,0
18.08.2019 20:00:00 17,7 13,0 18,0 19,7 21 12 35 19 NW 1013,0 32 42 0,0
18.08.2019 19:00:00 18,5 12,3 19,1 19,6 20 11 32 17 NW 1012,5 43 19 0,0
18.08.2019 18:00:00 18,2 12,4 19,2 19,4 22 12 38 20 NW 1012,5 33 20 0,0
18.08.2019 17:00:00 19,3 12,6 20,1 19,1 24 13 37 20 NW 1012,1 49 36 0,0
18.08.2019 16:00:00 18,8 12,8 20,8 18,8 18 10 35 19 NNW 1011,8 45 21 0,0
18.08.2019 15:00:00 20,1 12,1 20,7 18,6 23 12 39 21 WNW 1011,3 51 29 0,0
18.08.2019 14:00:00 19,9 11,6 19,9 18,3 19 10 35 19 W 1010,8 52 17 0,0
18.08.2019 13:00:00 18,9 11,9 19,2 18,1 20 11 33 18 W 1010,7 45 24 0,0
18.08.2019 12:00:00 18,7 12,0 18,1 17,9 20 11 36 19 WNW 1010,1 39 47 0,0
18.08.2019 11:00:00 17,7 13,0 17,0 17,9 22 12 36 20 WNW 1009,2 55 47 0,0
18.08.2019 10:00:00 16,3 14,3 15,3 17,9 19 10 32 17 W 1008,5 52 3 0,0
18.08.2019 09:00:00 15,2 14,6 14,8 18,0 11 6 20 11 W 1007,3 57 0 0,0
18.08.2019 08:00:00 14,7 14,2 14,3 18,1 8 5 18 10 WSW 1006,4 35 0 0,0
18.08.2019 07:00:00 14,5 14,0 14,2 18,2 10 6 35 19 W 1005,6 19 0 0,0
18.08.2019 06:00:00 14,3 14,0 14,2 18,3 12 7 22 12 SSE 1003,2 46 0 0,0
18.08.2019 05:00:00 14,2 13,9 14,2 18,5 4 2 11 6 NE 1004,2 16 0 3,7
18.08.2019 04:00:00 14,2 13,9 14,1 18,7 8 4 10 6 ENE 1004,7 3,3 0 4,4
18.08.2019 03:00:00 14,2 13,7 14,0 18,8 4 2 11 6 NNE 1005,9 2,2 0 4,2
18.08.2019 02:00:00 14,1 13,6 14,1 19,0 3 1 13 7 NW 1007,2 2,7 0 4,5
18.08.2019 01:00:00 14,5 13,7 14,0 19,2 4 2 20 11 W 1007,9 3,6 0 1,8
18.08.2019 00:00:00 14,7 13,6 14,3 19,4 16 8 24 13 SSW 1008,4 4,8 0 0,6
17.08.2019 23:00:00 15,0 13,5 14,3 19,5 14 8 25 13 SSW 1008,7 30 0 0,2
17.08.2019 22:00:00 16,1 15,0 15,5 19,7 15 8 27 15 SSW 1009,2 15 0 0,4
17.08.2019 21:00:00 16,6 15,3 15,9 19,7 10 5 22 12 SSW 1009,2 9 0 1,0
17.08.2019 20:00:00 17,8 14,5 16,1 19,8 14 8 27 15 SSW 1009,4 14 0 0,2
17.08.2019 19:00:00 19,3 13,7 19,4 19,7 15 8 22 12 SW 1009,6 42 0 0,0
17.08.2019 18:00:00 19,2 14,0 20,3 19,5 5 3 19 10 N 1009,3 35 0 0,0
17.08.2019 17:00:00 20,4 14,1 22,0 19,3 9 5 17 9 NW 1009,6 41 4 0,0
17.08.2019 16:00:00 20,6 13,8 22,4 19,1 12 7 29 15 NW 1009,6 20 11 0,0
17.08.2019 15:00:00 20,0 13,2 21,8 18,9 14 8 24 13 WNW 1009,7 45 0 0,0
17.08.2019 14:00:00 20,0 13,9 - - 13 7 26 14 WNW 1009,7 40 - -
17.08.2019 13:00:00 18,4 14,5 17,8 18,7 15 8 22 12 W 1010,0 39 0 0,0
17.08.2019 12:00:00 17,6 14,5 16,9 18,7 9 5 17 9 W 1009,2 39 0 0,0
17.08.2019 11:00:00 16,9 14,9 16,4 18,7 16 8 24 13 WNW 1009,6 13 0 0,0
17.08.2019 10:00:00 16,3 15,0 16,2 18,7 16 8 34 18 W 1009,2 18 0 0,6
17.08.2019 09:00:00 18,6 17,6 18,0 18,7 16 8 25 13 SW 1008,8 4,6 0 0,0
17.08.2019 08:00:00 18,4 17,4 17,9 18,8 16 9 28 15 SSW 1008,2 54 0 0,0
17.08.2019 07:00:00 18,5 17,2 17,9 18,8 18 10 32 17 SSW 1008,0 10 0 0,0
17.08.2019 06:00:00 18,6 17,1 18,4 18,8 19 11 33 18 SSW 1008,1 59 0 0,0
17.08.2019 05:00:00 18,8 16,9 18,0 18,9 21 11 36 19 SSW 1008,4 60 0 0,0
17.08.2019 04:00:00 18,4 16,9 17,9 18,9 21 11 37 20 SSW 1008,8 60 0 0,0
17.08.2019 03:00:00 18,5 17,0 17,6 19,0 22 12 39 21 SSW 1008,9 59 0 0,0
17.08.2019 02:00:00 18,1 16,8 17,5 19,0 24 13 37 20 SSW 1009,0 60 0 0,0
17.08.2019 01:00:00 18,0 16,5 17,1 19,2 24 13 39 21 SSW 1009,7 60 0 0,0
17.08.2019 00:00:00 17,5 16,2 16,6 19,3 26 14 43 23 SSW 1009,8 48 0 0,0
16.08.2019 23:00:00 17,2 15,7 16,2 19,4 24 13 44 24 SSW 1010,5 34 0 0,0
16.08.2019 22:00:00 17,1 15,3 16,0 19,5 24 13 42 23 SSW 1010,9 17 0 0,6
16.08.2019 21:00:00 17,0 15,2 16,0 19,6 20 11 30 16 S 1011,1 20 0 0,6
16.08.2019 20:00:00 17,3 15,3 16,2 19,6 18 10 40 21 S 1011,8 12 0 0,8
16.08.2019 19:00:00 18,9 14,6 17,0 19,6 26 14 46 25 SSW 1012,4 24 0 0,0
16.08.2019 18:00:00 20,1 13,8 20,8 19,4 34 19 59 32 SSW 1012,2 52 7 0,0
16.08.2019 17:00:00 21,0 13,7 21,4 19,2 34 18 58 31 SSW 1013,0 20 1 0,0
16.08.2019 16:00:00 21,5 13,1 22,3 19,0 37 20 61 33 SSW 1013,5 20 4 0,0
16.08.2019 15:00:00 21,6 13,2 22,9 18,7 36 20 56 30 SW 1014,1 20 12 0,0
16.08.2019 14:00:00 20,7 13,2 21,6 18,6 32 17 60 32 SSW 1014,8 50 7 0,0
16.08.2019 13:00:00 20,1 14,2 20,1 18,4 26 14 48 26 SSW 1015,3 55 0 0,0
16.08.2019 12:00:00 19,3 13,2 20,6 18,2 23 13 41 22 SSW 1016,0 54 26 0,0
16.08.2019 11:00:00 18,3 13,8 18,5 18,2 20 11 37 20 SSW 1017,0 55 10 0,0
16.08.2019 10:00:00 17,4 13,3 16,4 18,3 22 12 37 20 SSW 1017,3 54 13 0,0
16.08.2019 09:00:00 15,7 13,4 13,5 18,4 13 7 20 11 SSW 1017,7 20 57 0,0
16.08.2019 08:00:00 13,2 12,4 10,6 18,6 11 6 18 10 S 1018,0 17 12 0,0
16.08.2019 07:00:00 12,5 11,7 10,5 18,8 8 4 12 6 SSW 1018,5 20 0 0,0
16.08.2019 06:00:00 12,5 11,4 10,7 18,9 8 4 10 5 S 1018,8 20 0 0,0
16.08.2019 05:00:00 13,6 12,3 12,1 19,1 9 5 13 7 S 1019,1 26 0 0,0
16.08.2019 04:00:00 13,9 12,6 12,3 19,2 9 5 11 6 S 1019,5 19 0 0,0
16.08.2019 03:00:00 15,4 13,8 15,0 19,4 6 3 8 5 S 1020,1 34 0 0,0
16.08.2019 02:00:00 15,3 13,8 14,8 19,5 8 4 11 6 S 1020,3 32 0 0,0
16.08.2019 01:00:00 15,1 13,8 13,9 19,7 6 4 7 4 S 1020,9 29 0 0,0
16.08.2019 00:00:00 15,7 13,9 12,3 19,8 4 2 8 5 SSW 1021,0 31 0 0,0
15.08.2019 23:00:00 15,5 13,3 12,4 19,9 6 4 10 5 NW 1021,1 34 0 0,0
15.08.2019 22:00:00 16,9 14,0 16,2 20,0 8 5 14 8 NW 1020,9 34 0 0,0
15.08.2019 21:00:00 17,8 13,3 17,8 20,0 9 5 26 14 NW 1020,7 49 32 0,0
15.08.2019 20:00:00 18,4 13,7 19,0 19,8 12 7 29 16 NW 1020,9 42 25 0,0
15.08.2019 19:00:00 19,7 12,9 20,1 19,7 20 11 38 20 NW 1020,6 43 37 0,0
15.08.2019 18:00:00 20,5 12,2 21,8 19,4 23 12 41 22 NW 1020,2 60 37 0,0
15.08.2019 17:00:00 19,4 13,3 21,8 19,1 29 16 44 24 NW 1020,4 45 16 0,0
15.08.2019 16:00:00 21,4 13,6 23,1 18,8 26 14 44 24 NW 1020,1 48 33 0,0
15.08.2019 15:00:00 19,9 12,9 21,4 18,5 27 15 44 24 WNW 1019,7 54 5 0,0
15.08.2019 14:00:00 20,2 12,4 22,2 18,2 27 14 45 24 WNW 1019,6 36 18 0,0
15.08.2019 13:00:00 19,7 12,9 20,7 18,1 29 15 46 25 W 1019,4 38 0 0,0
15.08.2019 12:00:00 19,1 13,5 19,4 18,0 29 16 49 26 W 1018,9 59 10 0,0
15.08.2019 11:00:00 18,3 13,2 18,6 17,9 34 18 51 27 W 1018,4 43 1 0,0
15.08.2019 10:00:00 17,6 13,7 16,9 18,0 24 13 35 19 W 1018,0 41 0 0,0
15.08.2019 09:00:00 16,0 14,2 15,8 18,0 11 6 23 12 SW 1017,4 20 0 0,0
15.08.2019 08:00:00 15,6 13,8 14,9 18,1 14 8 26 14 W 1017,0 19 0 0,0
15.08.2019 07:00:00 15,7 13,5 15,2 18,1 13 7 34 18 WSW 1016,4 20 0 0,0

tt = Température de l'air
td = dewpoint
tt 5cm = Température de l'air 5cm
tt -20cm = Température de l'air -20cm
ff = Vitesse du vent
fx = gusts
dd = Direction du vent
ppp = reduced air pressure
vv = visibility
sd = Ensoleillement
rr = Quantités de précipitations

stations d'obs. à proximité